Weather History for KPCZ - December, 2013

Change the Weather History Date:

Tuesday, December 17, 2013

  Actual Average Record
Temperature  
Mean Temperature 24 °F -  
Max Temperature 34 °F 29 °F 52 °F (1984)
Min Temperature 15 °F 13 °F -12 °F (1964)
Degree Days  
Heating Degree Days 40    
Moisture  
Dew Point 17 °F    
Average Humidity 71    
Maximum Humidity 87    
Minimum Humidity 55    
Precipitation  
Precipitation 0.00 in - - ()
Sea Level Pressure  
Sea Level Pressure 29.89 in    
Wind  
Wind Speed 9 mph (West)    
Max Wind Speed 16 mph    
Max Gust Speed 25 mph    
Visibility 8 miles    
Events Snow    
Averages and records for this station are not official NWS values.
T = Trace of Precipitation, MM = Missing Value Source: NWS Daily Summary

Daily Weather History Graph

Daily Weather History Graph

Search for Another Location

Airport or City:

Trip Planner

Search our weather history database for the weather conditions in past years. The results will help you decide how hot, cold, wet, or windy it might be!

Date:

Astronomy

Dec. 17, 2013 Rise Set
Actual Time 7:26 AM CST 4:18 PM CST
Civil Twilight 6:53 AM CST 4:51 PM CST
Nautical Twilight 6:16 AM CST 5:28 PM CST
Astronomical Twilight 5:41 AM CST 6:03 PM CST
Moon 5:00 PM CST (12/17) 7:20 AM CST (12/17)
Length of Visible Light 9h 58m
Length of Day
8h 51m
Full, 100% of the Moon is Illuminated
Dec 17
Full
Dec 25
Last Quarter
Jan 1
New
Jan 7
First Quarter
Jan 15
Full

Hourly Weather History & Observations

Time (CST) Temp. Windchill Dew Point Humidity Pressure Visibility Wind Dir Wind Speed Gust Speed Precip Events Conditions
12:15 AM 15.3 °F 2.0 °F 11.1 °F 84% 29.94 in 5.0 mi West 11.5 mph - N/A Snow Light Snow
12:35 AM 15.4 °F 4.6 °F 11.3 °F 84% 29.94 in 5.0 mi WSW 8.1 mph - N/A Snow Light Snow
12:55 AM 15.6 °F 4.0 °F 11.7 °F 84% 29.94 in 7.0 mi WSW 9.2 mph - N/A Snow Light Snow
1:15 AM 15.8 °F 6.1 °F 11.8 °F 84% 29.92 in 7.0 mi WSW 6.9 mph - N/A Snow Light Snow
1:35 AM 16.0 °F 6.3 °F 12.0 °F 84% 29.90 in 7.0 mi SW 6.9 mph - N/A   Unknown
1:55 AM 16.2 °F 4.7 °F 12.2 °F 84% 29.91 in 7.0 mi SW 9.2 mph - N/A   Unknown
2:15 AM 16.2 °F 5.5 °F 12.2 °F 84% 29.91 in 7.0 mi SW 8.1 mph - N/A   Unknown
2:35 AM 16.2 °F 5.5 °F 12.2 °F 84% 29.90 in 7.0 mi SW 8.1 mph - N/A   Unknown
2:55 AM 16.3 °F 7.8 °F 12.6 °F 85% 29.89 in 7.0 mi SSW 5.8 mph - N/A   Unknown
3:15 AM 16.3 °F 7.8 °F 12.7 °F 86% 29.88 in 7.0 mi SSW 5.8 mph - N/A   Unknown
3:35 AM 16.7 °F 8.3 °F 13.1 °F 86% 29.86 in 1.8 mi South 5.8 mph - N/A Snow Light Snow
3:55 AM 16.7 °F 9.6 °F 13.1 °F 86% 29.84 in 1.2 mi South 4.6 mph - N/A Snow Light Snow
4:15 AM 16.7 °F 11.2 °F 13.1 °F 86% 29.84 in 2.5 mi SSW 3.5 mph - N/A Snow Light Snow
4:35 AM 17.4 °F 9.1 °F 13.6 °F 85% 29.84 in 2.0 mi SSW 5.8 mph - N/A Snow Light Snow
4:55 AM 17.6 °F 10.7 °F 13.8 °F 85% 29.83 in 1.8 mi SSW 4.6 mph - N/A Snow Light Snow
5:15 AM 17.8 °F 10.9 °F 14.0 °F 85% 29.82 in 5.0 mi South 4.6 mph - N/A Snow Light Snow
5:35 AM 18.5 °F 10.4 °F 14.5 °F 85% 29.82 in 7.0 mi SSW 5.8 mph - N/A   Unknown
5:55 AM 18.9 °F 12.1 °F 14.7 °F 84% 29.81 in 5.0 mi SSW 4.6 mph - N/A Snow Light Snow
6:15 AM 19.2 °F 14.1 °F 14.9 °F 83% 29.81 in 4.0 mi SSW 3.5 mph - N/A Snow Light Snow
6:35 AM 19.6 °F - 15.6 °F 85% 29.81 in 5.0 mi Calm Calm - N/A Snow Light Snow
6:55 AM 20.1 °F - 16.2 °F 85% 29.80 in 5.0 mi Calm Calm - N/A   Mist
7:15 AM 22.5 °F 12.4 °F 19.0 °F 87% 29.80 in 7.0 mi WSW 9.2 mph - N/A   Unknown
7:35 AM 25.5 °F 16.2 °F 21.4 °F 84% 29.80 in 7.0 mi WSW 9.2 mph - N/A   Unknown
7:55 AM 25.9 °F 16.6 °F 21.4 °F 83% 29.81 in 4.0 mi West 9.2 mph - N/A Snow Light Snow
8:15 AM 26.6 °F 16.8 °F 22.1 °F 83% 29.81 in 2.5 mi West 10.4 mph 16.1 mph N/A Snow Light Snow
8:35 AM 27.5 °F 17.4 °F 22.6 °F 82% 29.82 in 3.0 mi West 11.5 mph 18.4 mph N/A   Haze
8:55 AM 28.2 °F 18.3 °F 22.1 °F 78% 29.82 in 10.0 mi West 11.5 mph 18.4 mph N/A   Unknown
9:15 AM 27.9 °F 18.4 °F 21.7 °F 78% 29.83 in 10.0 mi West 10.4 mph 16.1 mph N/A   Unknown
9:35 AM 29.1 °F 19.4 °F 21.7 °F 74% 29.83 in 10.0 mi WNW 11.5 mph 18.4 mph N/A   Unknown
9:55 AM 30.2 °F 19.8 °F 21.2 °F 69% 29.84 in 10.0 mi West 13.8 mph 18.4 mph N/A   Unknown
10:15 AM 31.8 °F 22.8 °F 20.8 °F 64% 29.84 in 10.0 mi WNW 11.5 mph 21.9 mph N/A   Unknown
10:35 AM 32.0 °F 22.5 °F 20.3 °F 62% 29.84 in 10.0 mi West 12.7 mph 21.9 mph N/A   Unknown
10:55 AM 33.1 °F 23.0 °F 20.8 °F 61% 29.84 in 10.0 mi WNW 15.0 mph 19.6 mph N/A   Unknown
11:15 AM 33.6 °F 24.6 °F 21.4 °F 61% 29.84 in 10.0 mi West 12.7 mph 17.3 mph N/A   Unknown
11:35 AM 32.7 °F 23.4 °F 21.0 °F 62% 29.84 in 10.0 mi West 12.7 mph - N/A   Unknown
11:55 AM 33.6 °F 25.0 °F 21.9 °F 62% 29.84 in 10.0 mi West 11.5 mph - N/A   Unknown
12:15 PM 34.3 °F 25.0 °F 22.5 °F 62% 29.83 in 10.0 mi West 13.8 mph 17.3 mph N/A   Unknown
12:35 PM 32.5 °F 22.7 °F 23.2 °F 68% 29.84 in 5.0 mi West 13.8 mph 19.6 mph N/A Snow Light Snow
12:55 PM 33.1 °F 24.9 °F 23.2 °F 67% 29.83 in 10.0 mi WNW 10.4 mph 17.3 mph N/A   Unknown
1:15 PM 34.0 °F 24.2 °F 20.7 °F 58% 29.83 in 10.0 mi West 15.0 mph 18.4 mph N/A   Unknown
1:35 PM 33.1 °F 23.0 °F 19.4 °F 57% 29.84 in 10.0 mi West 15.0 mph 25.3 mph N/A   Unknown
1:55 PM 32.2 °F 23.8 °F 20.1 °F 61% 29.84 in 10.0 mi WNW 10.4 mph 19.6 mph N/A   Unknown
2:15 PM 33.3 °F 24.6 °F 19.8 °F 58% 29.84 in 10.0 mi West 11.5 mph 16.1 mph N/A   Unknown
2:35 PM 32.0 °F 22.1 °F 19.6 °F 60% 29.85 in 10.0 mi West 13.8 mph 19.6 mph N/A   Unknown
2:55 PM 31.1 °F 23.7 °F 19.8 °F 63% 29.86 in 10.0 mi West 8.1 mph - N/A   Unknown
3:15 PM 31.3 °F 21.6 °F 20.3 °F 64% 29.86 in 10.0 mi West 12.7 mph 16.1 mph N/A   Unknown
3:35 PM 30.4 °F 19.5 °F 18.3 °F 61% 29.87 in 10.0 mi West 15.0 mph 18.4 mph N/A   Unknown
3:55 PM 29.3 °F 19.6 °F 19.2 °F 66% 29.88 in 10.0 mi West 11.5 mph - N/A   Unknown
4:15 PM 29.1 °F 18.9 °F 19.8 °F 68% 29.89 in 10.0 mi West 12.7 mph 18.4 mph N/A   Unknown
4:35 PM 29.3 °F 19.6 °F 19.0 °F 66% 29.90 in 10.0 mi West 11.5 mph 16.1 mph N/A   Unknown
4:55 PM 29.3 °F 20.2 °F 18.0 °F 63% 29.90 in 10.0 mi West 10.4 mph - N/A   Unknown
5:15 PM 28.2 °F 19.5 °F 17.1 °F 63% 29.91 in 10.0 mi WSW 9.2 mph - N/A   Unknown
5:35 PM 28.4 °F 19.7 °F 18.1 °F 65% 29.92 in 10.0 mi West 9.2 mph - N/A   Unknown
5:55 PM 28.6 °F 19.9 °F 19.2 °F 68% 29.92 in 10.0 mi WSW 9.2 mph - N/A   Unknown
6:15 PM 29.1 °F 20.0 °F 19.4 °F 67% 29.92 in 10.0 mi West 10.4 mph - N/A   Unknown
6:35 PM 29.1 °F 18.9 °F 19.2 °F 67% 29.93 in 10.0 mi West 12.7 mph - N/A   Unknown
6:55 PM 28.9 °F 21.1 °F 19.2 °F 67% 29.93 in 10.0 mi WSW 8.1 mph - N/A   Unknown
7:15 PM 28.8 °F 19.0 °F 20.1 °F 70% 29.94 in 10.0 mi West 11.5 mph 18.4 mph N/A Snow Light Snow
7:35 PM 28.4 °F 17.5 °F 19.9 °F 71% 29.94 in 10.0 mi West 13.8 mph - N/A Snow Light Snow
7:55 PM 28.2 °F 17.2 °F 19.4 °F 70% 29.95 in 10.0 mi West 13.8 mph - N/A Snow Light Snow
8:15 PM 27.5 °F 16.8 °F 17.6 °F 66% 29.96 in 10.0 mi WNW 12.7 mph 16.1 mph N/A   Unknown
8:35 PM 26.6 °F 15.7 °F 14.0 °F 59% 29.97 in 10.0 mi WNW 12.7 mph 24.2 mph N/A   Unknown
8:55 PM 25.7 °F 13.1 °F 12.9 °F 58% 29.97 in 10.0 mi NW 16.1 mph 19.6 mph N/A   Unknown
9:15 PM 24.8 °F 14.6 °F 11.8 °F 58% 29.98 in 10.0 mi NW 10.4 mph 20.7 mph N/A   Unknown
9:35 PM 24.4 °F 14.2 °F 11.3 °F 57% 29.98 in 10.0 mi WNW 10.4 mph 17.3 mph N/A   Unknown
9:55 PM 23.9 °F 11.2 °F 10.8 °F 57% 29.99 in 10.0 mi WNW 15.0 mph 19.6 mph N/A   Unknown
10:15 PM 23.0 °F 11.1 °F 9.3 °F 56% 30.00 in 10.0 mi WNW 12.7 mph 20.7 mph N/A   Unknown
10:35 PM 22.1 °F 9.5 °F 9.1 °F 58% 30.01 in 10.0 mi West 13.8 mph 20.7 mph N/A   Unknown
10:55 PM 21.0 °F 7.6 °F 7.0 °F 55% 30.02 in 10.0 mi WNW 15.0 mph 21.9 mph N/A   Unknown
11:15 PM 20.3 °F 7.7 °F 6.8 °F 56% 30.02 in 10.0 mi WNW 12.7 mph 17.3 mph N/A   Unknown
11:35 PM 19.4 °F 8.6 °F 5.9 °F 56% 30.02 in 10.0 mi WNW 9.2 mph 16.1 mph N/A   Unknown
11:55 PM 19.0 °F 8.2 °F 6.1 °F 57% 30.03 in 10.0 mi West 9.2 mph 17.3 mph N/A   Unknown